Superior, WI

7:41 PM CDT on August 17, 2017 (GMT -0500)
Bong

Weather History for KSUW - July, 2014

Change the Weather History Date:

Saturday, July 5, 2014

  Actual Average Record
Temperature  
Mean Temperature 66 °F -  
Max Temperature 82 °F 74 °F 97 °F (1948)
Min Temperature 50 °F 53 °F 37 °F (1956)
Cooling Degree Days 1    
Growing Degree Days 16 (Base 50)    
Moisture  
Dew Point 60 °F    
Average Humidity 78    
Maximum Humidity 98    
Minimum Humidity 56    
Precipitation  
Precipitation 0.00 in - - ()
Sea Level Pressure  
Sea Level Pressure 29.92 in    
Wind  
Wind Speed 6 mph (SW)    
Max Wind Speed 22 mph    
Max Gust Speed 33 mph    
Visibility 10 miles    
Events      
Averages and records for this station are not official NWS values.
T = Trace of Precipitation, MM = Missing Value Source: NWS Daily Summary

Daily Weather History Graph

Daily Weather History Graph

Search for Another Location

Airport or City:

Trip Planner

Search our weather history database for the weather conditions in past years. The results will help you decide how hot, cold, wet, or windy it might be!

Date:

Astronomy

Jul. 05, 2014 Rise Set
Actual Time 5:21 AM CDT 9:04 PM CDT
Civil Twilight 4:42 AM CDT 9:43 PM CDT
Nautical Twilight 3:50 AM CDT 10:35 PM CDT
Astronomical Twilight 2:36 AM CDT 11:47 PM CDT
Moon 1:46 PM CDT (7/5) 12:28 AM CDT (7/5)
Length of Visible Light 17h 00m
Length of Day
15h 43m
First Quarter, 52% of the Moon is Illuminated
Jul 5
First Quarter
Jul 12
Full
Jul 18
Last Quarter
Jul 26
New
Aug 3
First Quarter

Hourly Weather History & Observations

Time (CDT) Temp. Heat Index Dew Point Humidity Pressure Visibility Wind Dir Wind Speed Gust Speed Precip Events Conditions
12:15 AM 55.4 °F - 54.7 °F 97% 30.07 in 10.0 mi North 3.5 mph - N/A   Scattered Clouds
12:35 AM 58.8 °F - 56.5 °F 92% 30.07 in 5.0 mi Calm Calm - N/A   Mostly Cloudy
12:55 AM 57.9 °F - 56.3 °F 94% 30.07 in 4.0 mi Calm Calm - N/A   Overcast
1:15 AM 57.0 °F - 55.8 °F 96% 30.06 in 5.0 mi Calm Calm - N/A   Mostly Cloudy
1:35 AM 55.2 °F - 54.0 °F 96% 30.06 in 7.0 mi NE 4.6 mph - N/A   Clear
1:55 AM 54.5 °F - 53.6 °F 97% 30.04 in 10.0 mi Calm Calm - N/A   Scattered Clouds
2:15 AM 54.1 °F - 53.1 °F 96% 30.05 in 10.0 mi North 4.6 mph - N/A   Mostly Cloudy
2:35 AM 53.8 °F - 52.9 °F 97% 30.05 in 10.0 mi Calm Calm - N/A   Mostly Cloudy
2:55 AM 54.1 °F - 52.9 °F 95% 30.04 in 10.0 mi Calm Calm - N/A   Scattered Clouds
3:15 AM 53.8 °F - 52.7 °F 96% 30.04 in 10.0 mi Calm Calm - N/A   Mostly Cloudy
3:35 AM 52.7 °F - 51.8 °F 97% 30.03 in 10.0 mi Calm Calm - N/A   Scattered Clouds
3:55 AM 51.6 °F - 50.7 °F 97% 30.03 in 10.0 mi Calm Calm - N/A   Clear
4:15 AM 51.6 °F - 50.7 °F 97% 30.02 in 10.0 mi Calm Calm - N/A   Clear
4:35 AM 51.8 °F - 50.9 °F 97% 30.02 in 10.0 mi NE 3.5 mph - N/A   Clear
4:55 AM 51.8 °F - 50.9 °F 97% 30.02 in 10.0 mi Calm Calm - N/A   Clear
5:35 AM 50.9 °F - 49.8 °F 96% 30.01 in 10.0 mi Calm Calm - N/A   Clear
5:55 AM 50.9 °F - 50.0 °F 97% 30.01 in 10.0 mi Calm Calm - N/A   Scattered Clouds
6:15 AM 50.0 °F - 49.5 °F 98% 30.02 in 10.0 mi Calm Calm - N/A   Scattered Clouds
6:35 AM 51.3 °F - 50.4 °F 97% 30.02 in 10.0 mi Calm Calm - N/A   Mostly Cloudy
6:55 AM 52.7 °F - 50.9 °F 94% 30.01 in 10.0 mi Calm Calm - N/A   Scattered Clouds
7:15 AM 54.0 °F - 51.6 °F 92% 30.01 in 10.0 mi Calm Calm - N/A   Scattered Clouds
7:35 AM 55.6 °F - 53.1 °F 91% 30.01 in 10.0 mi Calm Calm - N/A   Scattered Clouds
7:55 AM 58.6 °F - 55.0 °F 88% 30.00 in 10.0 mi Calm Calm - N/A   Scattered Clouds
8:15 AM 63.9 °F - 58.6 °F 83% 29.99 in 10.0 mi SW 5.8 mph - N/A   Scattered Clouds
8:35 AM 70.0 °F - 60.4 °F 72% 29.98 in 10.0 mi SW 11.5 mph 17.3 mph N/A   Scattered Clouds
8:55 AM 71.1 °F - 60.6 °F 69% 29.97 in 10.0 mi SSW 13.8 mph 18.4 mph N/A   Scattered Clouds
9:15 AM 72.5 °F - 61.5 °F 68% 29.96 in 10.0 mi SW 11.5 mph - N/A   Clear
9:35 AM 74.3 °F - 62.1 °F 65% 29.96 in 10.0 mi SW 16.1 mph - N/A   Clear
9:55 AM 75.6 °F - 62.1 °F 63% 29.95 in 10.0 mi SW 16.1 mph 26.5 mph N/A   Clear
10:15 AM 76.3 °F - 62.4 °F 62% 29.95 in 10.0 mi SW 12.7 mph 24.2 mph N/A   Clear
10:35 AM 77.2 °F - 62.4 °F 60% 29.94 in 10.0 mi SW 16.1 mph 24.2 mph N/A   Clear
10:55 AM 78.4 °F - 62.8 °F 58% 29.93 in 10.0 mi WSW 17.3 mph 24.2 mph N/A   Clear
11:15 AM 79.2 °F - 64.0 °F 60% 29.92 in 10.0 mi SSW 13.8 mph 19.6 mph N/A   Clear
11:35 AM 79.2 °F - 63.0 °F 57% 29.92 in 10.0 mi SW 12.7 mph 27.6 mph N/A   Clear
11:55 AM 79.9 °F - 63.9 °F 58% 29.91 in 10.0 mi SSW 13.8 mph 25.3 mph N/A   Clear
12:15 PM 80.6 °F 82.2 °F 63.9 °F 57% 29.90 in 10.0 mi SW 16.1 mph 20.7 mph N/A   Clear
12:35 PM 80.6 °F 82.2 °F 64.2 °F 57% 29.88 in 10.0 mi SSW 17.3 mph 24.2 mph N/A   Clear
12:55 PM 82.0 °F 83.8 °F 65.1 °F 56% 29.87 in 10.0 mi SW 20.7 mph 28.8 mph N/A   Clear
1:15 PM 82.9 °F 85.0 °F 65.8 °F 56% 29.87 in 10.0 mi SW 15.0 mph 24.2 mph N/A   Scattered Clouds
1:35 PM 82.6 °F 84.7 °F 65.8 °F 57% 29.86 in 10.0 mi SSW 17.3 mph 26.5 mph N/A   Scattered Clouds
1:55 PM 82.6 °F 84.9 °F 66.2 °F 58% 29.86 in 10.0 mi SW 19.6 mph 25.3 mph N/A   Clear
2:15 PM 82.4 °F 84.4 °F 65.7 °F 57% 29.87 in 10.0 mi SW 21.9 mph 33.4 mph N/A   Scattered Clouds
2:35 PM 82.0 °F 84.5 °F 66.7 °F 60% 29.87 in 10.0 mi WSW 16.1 mph 24.2 mph N/A   Scattered Clouds
2:55 PM 81.9 °F 84.1 °F 66.4 °F 59% 29.87 in 10.0 mi SW 16.1 mph 25.3 mph N/A   Scattered Clouds
3:15 PM 81.9 °F 84.1 °F 66.4 °F 59% 29.87 in 10.0 mi SW 19.6 mph 24.2 mph N/A   Mostly Cloudy
3:35 PM 81.0 °F 83.3 °F 66.7 °F 62% 29.87 in 10.0 mi SW 17.3 mph 20.7 mph N/A   Overcast
3:55 PM 81.7 °F 84.3 °F 67.6 °F 62% 29.86 in 10.0 mi SSW 11.5 mph 17.3 mph N/A   Overcast
4:15 PM 81.3 °F 84.0 °F 67.5 °F 63% 29.85 in 10.0 mi SW 15.0 mph 20.7 mph N/A   Mostly Cloudy
4:35 PM 79.9 °F - 67.3 °F 65% 29.85 in 10.0 mi SW 12.7 mph 20.7 mph N/A   Overcast
4:55 PM 79.3 °F - 66.9 °F 66% 29.84 in 10.0 mi SW 15.0 mph 21.9 mph N/A   Overcast
5:15 PM 80.1 °F 82.4 °F 67.3 °F 65% 29.84 in 10.0 mi SW 12.7 mph 21.9 mph N/A   Overcast
5:35 PM 80.6 °F 83.1 °F 67.5 °F 64% 29.84 in 10.0 mi SW 16.1 mph 24.2 mph N/A   Overcast
5:55 PM 80.4 °F 83.0 °F 67.5 °F 65% 29.83 in 10.0 mi SW 16.1 mph - N/A   Overcast
6:15 PM 79.7 °F - 67.6 °F 66% 29.83 in 10.0 mi SW 9.2 mph 19.6 mph N/A   Overcast
6:35 PM 79.5 °F - 68.0 °F 68% 29.84 in 10.0 mi SW 11.5 mph - N/A   Overcast
6:55 PM 79.5 °F - 68.0 °F 68% 29.83 in 10.0 mi SW 8.1 mph - N/A   Overcast
7:15 PM 79.0 °F - 68.0 °F 69% 29.82 in 10.0 mi SW 6.9 mph - N/A   Overcast
7:35 PM 79.0 °F - 68.2 °F 69% 29.82 in 10.0 mi SSW 4.6 mph - N/A   Overcast
7:55 PM 77.9 °F - 68.4 °F 72% 29.82 in 10.0 mi SSW 4.6 mph - N/A   Overcast
8:15 PM 76.6 °F - 68.7 °F 76% 29.82 in 10.0 mi Calm Calm - N/A   Overcast
8:35 PM 74.1 °F - 68.5 °F 83% 29.81 in 10.0 mi Calm Calm - N/A   Mostly Cloudy
8:55 PM 61.7 °F - 56.7 °F 84% 29.82 in 10.0 mi NE 10.4 mph - N/A   Mostly Cloudy
9:15 PM 56.3 °F - 53.4 °F 90% 29.83 in 10.0 mi NE 6.9 mph - N/A   Mostly Cloudy
9:35 PM 56.3 °F - 54.1 °F 92% 29.84 in 10.0 mi ENE 3.5 mph - N/A   Mostly Cloudy
9:55 PM 56.7 °F - 55.4 °F 96% 29.83 in 10.0 mi Calm Calm - N/A   Mostly Cloudy
10:15 PM 58.6 °F - 57.4 °F 96% 29.83 in 10.0 mi NE 3.5 mph - N/A   Scattered Clouds
10:35 PM 58.3 °F - 57.2 °F 96% 29.84 in 10.0 mi Calm Calm - N/A   Mostly Cloudy
10:55 PM 58.3 °F - 57.4 °F 97% 29.83 in 10.0 mi Calm Calm - N/A   Mostly Cloudy
11:15 PM 58.3 °F - 57.2 °F 96% 29.83 in 10.0 mi Calm Calm - N/A   Scattered Clouds
11:35 PM 58.1 °F - 57.2 °F 97% 29.81 in 10.0 mi Calm Calm - N/A   Clear
11:55 PM 57.4 °F - 56.8 °F 98% 29.81 in 10.0 mi Calm Calm - N/A   Clear